Location: Prague
(50.0830°N, 14.4670°E)
Time: 14:04:54
(UTC+01:00)

BEESAT 3 - Visible Passes

Search period start: 06 December 2021 00:00
Search period end: 16 December 2021 00:00
Orbit: 477 x 511 km, 64.9° (Epoch: 05 December)

Date Brightness Start Highest point End Pass type
(mag) Time Alt. Az. Time Alt. Az. Time Alt. Az.
06 Dec ? 18:47:33 10° SSW 18:48:21 15° SSW 18:48:21 15° SSW visible
07 Dec ? 18:25:02 10° SSW 18:27:02 27° S 18:27:02 27° S visible
08 Dec ? 18:02:30 10° S 18:05:37 35° SE 18:05:37 35° SE visible
08 Dec ? 19:39:44 10° WSW 19:40:11 13° W 19:40:11 13° W visible
09 Dec ? 17:40:00 10° S 17:43:23 32° ESE 17:44:06 30° E visible
09 Dec ? 19:17:00 10° WSW 19:18:41 22° W 19:18:41 22° W visible
10 Dec ? 17:17:30 10° S 17:20:46 28° ESE 17:22:31 20° ENE visible
10 Dec ? 18:54:15 10° WSW 18:57:04 35° WNW 18:57:04 35° WNW visible
11 Dec ? 16:55:01 10° S 16:58:10 25° ESE 17:00:50 13° ENE visible
11 Dec ? 18:31:30 10° WSW 18:35:10 43° NW 18:35:23 43° NNW visible
12 Dec ? 16:32:32 10° S 16:35:32 22° ESE 16:38:33 10° ENE visible
12 Dec ? 18:08:46 10° WSW 18:12:28 48° NW 18:13:38 35° N visible
13 Dec ? 17:46:02 10° SW 17:49:46 54° NW 17:51:49 24° NNE visible
13 Dec ? 19:25:32 10° WNW 19:26:22 13° NW 19:26:22 13° NW visible
14 Dec ? 17:23:18 10° SW 17:27:03 61° NW 17:29:57 17° NNE visible
14 Dec ? 19:02:37 10° WNW 19:04:29 15° NW 19:04:29 15° NW visible
15 Dec ? 17:00:34 10° SW 17:04:21 68° NW 17:08:02 11° NE visible
15 Dec ? 18:39:43 10° WNW 18:42:13 16° NNW 18:42:34 16° NNW visible
